Wind_Speed
34 31 28 28 28 28 29 28 28 27 26 26 23 24 23 22 22 21 22 21 22 21 20 20 20 20 20 20 19 19 19 18 18 18 18 17 17 17 16 16 16 15 16 16
37 34 31 31 30 28 29 29 29 28 27 27 27 27 26 25 24 23 23 23 23 23 23 23 22 21 21 21 21 21 21 20 20 20 20 19 20 19 18 18 18 18 18 18
37 36 34 35 33 31 30 30 30 30 30 28 30 32 30 29 27 26 25 26 26 25 24 24 24 23 23 24 24 23 23 22 22 22 22 21 21 21 21 21 21 20 20 20
36 35 38 37 33 32 31 31 31 31 31 31 31 31 31 30 29 27 27 28 28 28 27 26 26 26 25 26 26 25 25 24 24 23 23 23 23 23 23 23 23 23 23 22
37 37 38 37 34 33 32 33 34 33 32 33 34 33 33 30 30 29 28 29 29 30 29 29 28 28 28 28 28 27 26 26 26 26 25 26 26 25 26 26 25 25 25 25
39 38 38 36 35 33 33 36 37 37 36 36 36 36 36 34 33 33 31 31 31 32 32 31 31 30 30 30 30 29 28 27 28 29 29 28 28 28 28 28 28 28 27 26
40 40 39 36 35 35 37 39 38 37 38 39 39 39 39 38 37 36 35 34 34 34 34 34 33 32 31 31 31 30 30 30 30 31 31 31 30 30 29 29 29 29 29 28
41 40 40 39 38 38 39 39 39 38 39 40 40 40 41 41 40 38 37 37 36 36 35 35 35 34 33 32 32 31 31 31 31 31 31 31 31 31 31 31 31 31 31 30
39 40 40 41 42 41 41 40 40 40 41 41 41 41 42 41 40 39 39 38 38 37 37 36 36 35 34 33 33 33 32 32 32 32 32 32 32 32 32 32 32 32 32 31
41 41 41 41 41 43 43 42 42 41 42 42 41 41 41 41 40 39 38 38 38 38 37 36 36 36 35 34 34 34 34 33 33 33 33 33 33 33 33 32 33 33 33 33
41 41 43 44 44 44 45 45 44 43 41 40 40 39 39 39 39 39 39 39 39 38 37 37 38 38 37 36 35 34 34 34 34 34 34 34 34 33 33 34 34 33 33 33
42 42 44 44 44 43 44 44 44 43 42 40 40 39 39 39 39 39 39 39 40 40 39 38 39 38 38 37 36 35 35 35 35 35 35 35 34 34 33 33 33 33 33 33
40 41 44 44 42 42 43 43 42 42 41 41 40 39 40 40 40 39 39 38 38 39 39 38 37 37 37 37 37 36 35 35 35 35 35 34 35 35 34 34 34 34 34 34
38 38 40 41 41 41 41 41 41 41 42 42 41 40 41 41 40 39 39 38 38 38 37 37 37 37 37 37 37 36 35 35 35 35 34 35 34 34 34 34 34 34 34 33
36 38 38 38 39 39 40 40 41 40 41 40 39 39 39 39 39 38 38 38 38 37 37 37 37 37 37 36 36 35 35 35 35 35 35 35 34 34 34 34 35 34 33 33
35 36 37 38 38 38 39 38 39 39 39 38 39 39 38 38 38 37 37 37 38 37 37 37 37 37 37 36 36 36 36 35 36 36 36 35 34 34 34 34 34 34 33 34
33 33 34 35 36 35 37 38 38 38 38 38 39 39 39 38 37 36 36 36 36 37 37 38 38 37 36 36 36 36 35 35 36 36 35 35 34 35 35 35 34 34 34 34
29 30 31 32 33 34 35 36 37 37 38 38 39 39 38 38 37 37 37 37 36 36 37 37 37 36 36 35 35 36 35 35 35 35 34 34 35 35 35 36 36 35 33 33
27 28 29 29 30 30 32 33 34 35 36 35 35 36 36 36 36 35 35 35 35 35 35 35 35 36 36 35 35 34 34 34 34 34 34 34 34 34 34 34 33 33 33 33
23 24 26 27 28 29 29 30 31 32 32 32 32 33 34 34 34 34 33 34 34 34 34 34 33 33 34 34 34 33 33 33 34 34 35 35 34 34 34 33 32 33 34 34
23 24 25 25 26 26 26 27 28 29 30 31 31 32 32 32 32 32 32 32 31 31 31 31 32 32 32 33 33 33 34 34 34 34 34 34 34 34 34 34 34 35 36 35
20 21 22 22 23 24 24 25 26 27 27 28 28 29 29 29 29 30 31 31 31 31 30 31 31 31 31 32 31 32 32 33 33 33 33 33 33 34 34 34 34 35 36 36
18 19 19 20 21 21 21 22 23 24 25 26 27 27 27 27 27 28 28 29 29 30 30 30 30 30 31 31 32 32 32 33 33 33 32 33 33 34 34 33 33 33 35 35
14 15 15 16 17 18 19 19 20 21 22 23 24 24 25 25 26 26 26 27 27 28 29 29 29 29 30 30 31 32 32 33 33 33 33 33 34 34 34 34 34 35 35 35
11 11 12 13 15 16 16 17 17 18 19 20 21 20 21 23 24 25 26 26 27 27 28 28 28 28 29 29 31 32 32 31 31 32 33 33 34 34 34 34 34 33 34 34
9 9 9 11 12 14 15 16 16 17 19 19 19 19 20 21 22 22 23 24 25 26 26 27 28 29 29 29 30 31 31 31 32 33 34 34 34 34 34 34 34 33 34 34
8 9 9 9 10 12 13 14 14 14 15 16 17 18 19 19 20 20 21 22 22 23 25 25 26 27 28 29 30 31 31 31 32 32 32 32 33 33 33 33 33 33 33 34
Wind_Direction
227 228 229 236 236 233 234 236 243 245 248 252 259 257 259 261 264 268 271 274 277 281 284 286 290 292 292 294 295 297 298 299 300 303 305 305 305 305 304 303 305 305 305 304
229 229 231 232 233 235 237 237 243 247 247 251 255 256 258 262 263 266 269 270 273 276 279 282 285 287 289 290 291 292 293 294 295 297 298 300 302 301 300 300 301 302 302 300
232 232 233 236 236 234 238 240 242 245 247 248 254 259 259 260 262 265 267 268 270 273 276 279 282 284 286 289 289 289 289 290 291 292 294 295 297 297 297 297 296 297 299 298
233 234 236 237 239 239 238 240 241 242 243 245 250 255 259 261 261 262 265 268 269 273 275 276 279 281 283 285 287 286 286 287 287 289 291 293 294 295 295 295 295 294 295 294
232 236 241 239 239 240 241 242 243 244 243 244 247 252 256 259 260 262 264 266 268 270 273 275 278 279 280 281 283 283 285 285 286 287 288 289 291 292 293 293 294 294 294 293
233 234 238 240 241 240 241 244 243 244 245 246 247 250 254 256 259 261 263 266 268 270 272 274 277 278 278 278 278 280 281 282 284 285 286 286 288 290 290 291 291 291 291 292
235 236 238 240 241 242 241 243 245 245 246 246 248 250 253 256 257 260 262 264 266 268 270 273 274 275 276 277 277 277 279 281 283 283 284 285 286 288 289 289 289 290 289 290
235 237 238 240 240 240 243 246 246 246 248 249 251 253 256 258 259 260 261 262 264 266 268 270 271 273 274 275 275 275 277 279 281 283 283 284 285 286 286 287 289 290 290 289
237 237 239 239 239 241 243 244 246 248 249 250 252 253 256 258 260 260 259 261 263 264 265 266 268 270 272 272 272 273 275 276 279 281 283 283 284 283 284 285 287 288 288 287
237 238 238 238 238 240 243 246 247 248 249 251 253 254 256 258 259 259 259 260 262 263 263 264 266 268 269 270 271 272 273 275 277 280 282 283 283 283 283 284 284 285 285 284
238 239 239 239 241 243 246 247 248 248 250 253 254 255 256 258 259 259 260 260 260 261 263 265 266 267 268 268 269 271 273 275 277 279 281 282 283 284 284 284 283 284 285 284
238 238 240 241 245 246 247 249 250 250 250 251 253 254 255 256 258 259 260 261 260 261 264 265 266 267 267 268 270 272 275 276 277 278 279 280 282 283 283 283 283 283 284 284
240 240 241 242 244 246 248 249 249 249 249 250 251 253 255 257 258 259 259 260 261 262 263 264 266 267 268 269 270 271 273 274 275 276 278 279 280 281 281 281 282 283 284 284
242 242 242 242 243 245 246 247 248 248 249 251 252 255 257 258 259 259 259 260 261 262 264 265 266 267 268 269 270 270 272 273 274 275 277 278 279 280 281 280 281 283 285 283
244 244 245 245 244 245 245 246 247 248 248 252 254 255 257 259 260 260 260 261 261 263 264 265 266 266 267 268 269 270 271 272 273 274 276 277 278 279 279 279 281 282 283 284
246 246 246 246 246 247 246 245 246 247 249 252 252 254 256 258 259 260 261 261 261 263 264 265 265 266 267 267 269 270 270 271 272 274 275 277 277 279 279 280 281 280 281 283
247 246 246 245 245 245 245 245 246 247 249 251 252 254 255 257 258 260 260 260 261 263 264 264 264 265 266 268 268 269 269 270 271 272 273 275 276 278 278 280 280 280 281 282
246 246 245 244 244 244 245 246 246 248 250 253 254 254 255 257 259 260 260 260 261 263 264 264 264 264 264 264 266 268 268 269 271 273 274 274 275 276 277 278 279 281 282 282
246 244 243 243 243 245 247 247 248 249 250 251 253 254 255 258 260 261 261 262 262 262 263 263 263 262 262 264 265 266 268 269 270 271 272 272 274 275 277 280 280 281 281 282
251 249 246 245 246 247 249 249 247 248 250 252 254 255 256 257 258 258 260 261 263 264 265 263 263 262 262 264 265 266 268 271 272 272 271 272 272 272 274 276 277 278 280 281
254 252 248 247 246 246 249 249 248 249 251 252 254 254 254 256 257 257 259 261 263 263 263 262 263 263 263 263 264 266 268 270 270 270 271 272 273 272 273 275 276 276 277 279
253 251 249 248 249 248 249 251 250 251 252 252 252 253 255 256 259 260 260 261 262 263 263 262 263 263 263 264 265 267 269 270 271 271 273 274 275 276 276 277 277 277 278 279
253 250 250 250 250 249 250 253 253 252 252 252 252 254 257 258 260 261 260 260 263 264 264 265 265 265 266 267 268 268 269 270 272 272 272 273 274 276 278 277 277 278 280 281
253 251 252 253 251 251 252 253 255 256 255 253 254 255 256 258 260 262 262 263 265 266 267 267 267 267 267 267 269 270 271 272 273 272 272 274 275 276 276 277 278 278 279 281
253 253 253 254 253 252 253 253 255 255 255 255 256 257 257 259 261 262 264 264 265 267 267 267 266 266 267 268 270 270 270 272 273 273 274 276 277 278 279 281 281 280 280 282
252 256 262 262 259 256 254 255 256 257 258 258 258 258 258 260 262 265 266 266 265 267 268 268 267 268 270 271 271 272 271 272 273 275 276 277 277 279 280 280 281 281 281 281
257 258 262 265 264 260 258 257 257 260 263 261 260 259 257 259 263 265 267 269 270 271 272 272 272 271 271 272 273 273 272 274 275 276 277 278 279 280 281 281 282 283 283 283
Height
5863 5868 5872 5875 5878 5881 5884 5887 5890 5892 5893 5893 5894 5893 5894 5894 5895 5896 5896 5897 5896 5896 5896 5895 5895 5895 5894 5893 5892 5891 5890 5889 5888 5886 5885 5883 5882 5881 5879 5878 5877 5875 5874 5872
5855 5860 5864 5867 5870 5874 5877 5880 5882 5884 5886 5886 5886 5885 5887 5888 5889 5890 5891 5891 5891 5891 5891 5890 5890 5890 5889 5888 5887 5886 5885 5884 5883 5882 5881 5879 5878 5877 5875 5874 5873 5871 5870 5868
5847 5852 5855 5858 5862 5866 5870 5872 5875 5876 5880 5880 5879 5879 5880 5881 5882 5884 5884 5885 5885 5885 5885 5885 5885 5884 5884 5883 5882 5881 5880 5879 5878 5877 5876 5874 5873 5872 5870 5869 5868 5866 5865 5863
5839 5843 5845 5853 5856 5859 5861 5863 5866 5868 5870 5872 5872 5872 5873 5874 5875 5876 5877 5877 5878 5878 5878 5879 5878 5878 5878 5877 5876 5875 5874 5873 5872 5871 5870 5869 5868 5866 5865 5864 5862 5861 5860 5858
5830 5833 5837 5843 5847 5850 5852 5854 5856 5859 5861 5863 5863 5865 5865 5865 5867 5868 5869 5870 5870 5871 5871 5871 5871 5871 5871 5870 5869 5868 5867 5866 5865 5864 5863 5862 5861 5860 5858 5857 5856 5854 5853 5852
5820 5824 5828 5834 5837 5840 5843 5843 5846 5849 5851 5853 5854 5856 5857 5858 5859 5860 5861 5862 5862 5863 5863 5863 5863 5863 5863 5862 5861 5861 5860 5859 5858 5857 5855 5854 5853 5852 5850 5849 5848 5847 5846 5845
5810 5813 5818 5824 5826 5830 5833 5833 5835 5838 5840 5842 5844 5846 5847 5848 5851 5852 5853 5854 5854 5854 5854 5855 5855 5855 5854 5854 5853 5852 5852 5851 5850 5848 5847 5846 5845 5844 5842 5841 5840 5839 5838 5838
5800 5804 5810 5812 5816 5819 5820 5822 5825 5828 5830 5832 5835 5836 5837 5839 5841 5842 5844 5845 5845 5845 5846 5846 5845 5846 5846 5845 5845 5844 5843 5842 5841 5839 5838 5837 5836 5835 5834 5833 5832 5831 5830 5829
5791 5795 5798 5801 5804 5806 5809 5812 5815 5817 5820 5822 5824 5827 5828 5829 5831 5832 5833 5835 5835 5835 5836 5836 5836 5836 5836 5836 5835 5835 5834 5833 5832 5831 5829 5828 5827 5826 5825 5824 5823 5822 5821 5820
5779 5783 5787 5790 5792 5794 5797 5801 5804 5807 5809 5812 5814 5816 5818 5819 5820 5821 5822 5824 5825 5825 5825 5825 5826 5827 5826 5826 5826 5825 5825 5824 5823 5822 5820 5819 5818 5817 5815 5815 5813 5812 5811 5810
5768 5772 5775 5778 5781 5785 5788 5790 5793 5796 5799 5801 5803 5805 5807 5809 5810 5811 5812 5813 5814 5814 5815 5815 5816 5816 5816 5816 5816 5815 5815 5814 5813 5812 5811 5810 5808 5807 5806 5805 5804 5803 5802 5801
5757 5760 5763 5767 5770 5773 5776 5779 5783 5786 5788 5790 5792 5794 5796 5798 5799 5800 5801 5802 5803 5804 5805 5805 5806 5806 5806 5806 5806 5805 5805 5804 5803 5802 5801 5800 5799 5798 5796 5796 5794 5793 5792 5791
5745 5748 5751 5756 5760 5762 5765 5768 5772 5775 5777 5779 5781 5783 5785 5787 5788 5789 5791 5791 5792 5793 5794 5795 5795 5795 5795 5795 5795 5795 5794 5794 5793 5792 5791 5790 5789 5788 5787 5786 5785 5784 5783 5782
5733 5737 5741 5745 5748 5752 5755 5758 5761 5763 5766 5768 5770 5772 5774 5775 5777 5778 5780 5781 5782 5783 5784 5784 5784 5785 5785 5785 5785 5784 5784 5784 5783 5782 5781 5780 5779 5778 5777 5776 5776 5775 5774 5773
5724 5727 5731 5735 5738 5741 5744 5747 5750 5753 5755 5757 5759 5761 5762 5764 5766 5767 5768 5770 5771 5772 5773 5773 5774 5775 5775 5774 5774 5774 5774 5774 5773 5772 5771 5770 5769 5768 5767 5767 5766 5766 5765 5764
5716 5718 5721 5724 5728 5731 5734 5737 5740 5742 5745 5747 5749 5750 5752 5753 5755 5756 5757 5759 5760 5761 5762 5763 5763 5764 5764 5764 5764 5764 5764 5764 5763 5762 5762 5761 5760 5759 5758 5758 5757 5756 5755 5755
5707 5710 5712 5715 5718 5721 5724 5727 5729 5732 5734 5736 5738 5740 5741 5743 5744 5746 5747 5748 5749 5751 5752 5753 5753 5754 5754 5754 5754 5754 5754 5754 5753 5752 5752 5751 5751 5750 5749 5748 5748 5747 5746 5746
5699 5702 5704 5706 5708 5712 5714 5717 5719 5722 5724 5726 5727 5729 5731 5733 5734 5736 5737 5738 5739 5740 5741 5742 5742 5743 5743 5744 5743 5744 5744 5744 5743 5742 5742 5742 5741 5740 5740 5739 5738 5738 5737 5736
5692 5694 5696 5698 5700 5702 5705 5708 5710 5712 5714 5716 5717 5719 5721 5723 5725 5726 5727 5728 5729 5730 5731 5731 5731 5732 5733 5734 5735 5735 5734 5734 5734 5733 5733 5732 5732 5731 5730 5730 5729 5728 5727 5727
5685 5687 5689 5691 5693 5695 5697 5699 5701 5703 5705 5706 5708 5710 5712 5714 5715 5716 5717 5718 5719 5719 5720 5720 5721 5722 5723 5724 5725 5725 5725 5724 5724 5724 5724 5723 5722 5722 5721 5720 5720 5719 5718 5717
5679 5680 5682 5684 5686 5688 5690 5691 5693 5695 5697 5698 5700 5701 5703 5705 5706 5707 5708 5709 5710 5710 5710 5711 5712 5713 5713 5714 5715 5715 5715 5715 5715 5714 5714 5713 5713 5712 5712 5710 5710 5710 5709 5708
5673 5674 5676 5678 5679 5681 5683 5684 5686 5687 5689 5690 5692 5694 5695 5697 5698 5699 5700 5701 5701 5701 5701 5702 5702 5703 5703 5703 5704 5705 5705 5705 5705 5705 5705 5704 5703 5703 5702 5701 5700 5699 5699 5698
5668 5669 5670 5672 5673 5675 5676 5678 5679 5680 5682 5683 5685 5686 5688 5689 5690 5691 5692 5693 5693 5693 5693 5694 5694 5694 5694 5694 5695 5695 5696 5696 5695 5695 5695 5694 5693 5693 5692 5691 5690 5689 5688 5688
5664 5665 5666 5667 5668 5669 5671 5672 5673 5674 5675 5676 5678 5679 5680 5681 5682 5683 5684 5684 5685 5685 5685 5686 5686 5686 5686 5686 5686 5687 5687 5686 5686 5686 5685 5685 5684 5683 5682 5682 5680 5679 5678 5677
5660 5661 5662 5663 5664 5665 5667 5667 5668 5669 5669 5670 5671 5672 5673 5675 5676 5676 5676 5676 5677 5677 5677 5677 5677 5677 5677 5677 5677 5677 5677 5677 5676 5676 5676 5675 5674 5673 5672 5671 5670 5669 5667 5667
5658 5659 5659 5660 5661 5662 5662 5663 5664 5664 5664 5665 5666 5667 5667 5668 5668 5668 5669 5669 5669 5669 5669 5669 5669 5668 5668 5668 5668 5668 5667 5667 5667 5666 5666 5665 5664 5663 5662 5661 5660 5659 5658 5656
5656 5657 5657 5657 5658 5658 5659 5659 5660 5660 5660 5661 5662 5662 5662 5663 5663 5662 5662 5662 5662 5662 5661 5661 5660 5660 5660 5659 5659 5658 5658 5658 5657 5656 5656 5655 5654 5653 5653 5652 5650 5649 5648 5646